Weather History for Grantley Adams, Barbados

Change the Weather History Date:

Monday, March 11, 2013

  Actual Average Record
Temperature  
Mean Temperature 80 °F -  
Max Temperature 84 °F 83 °F 87 °F (2011)
Min Temperature 76 °F 74 °F 69 °F (1998)
Cooling Degree Days 15    
Growing Degree Days 30 (Base 50)    
Moisture  
Dew Point 73 °F    
Average Humidity 78    
Maximum Humidity 83    
Minimum Humidity 65    
Precipitation  
Precipitation 0.00 in - - ()
Sea Level Pressure  
Sea Level Pressure 29.91 in    
Wind  
Wind Speed 11 mph ()    
Max Wind Speed 20 mph    
Max Gust Speed -    
Visibility 8.8 miles    
Events      
Averages and records for this station are not official NWS values.
T = Trace of Precipitation, MM = Missing Value Source: Averaged Metar Reports

Daily Weather History Graph

Daily Weather History Graph

Search for Another Location

Airport:

Trip Planner

Search our weather history database for the weather conditions in past years. The results will help you decide how hot, cold, wet, or windy it might be!

Date:

Astronomy

Mar. 11, 2013 Rise Set
Actual Time 6:07 AM AST 6:08 PM AST
Civil Twilight 5:46 AM AST 6:29 PM AST
Nautical Twilight 5:21 AM AST 6:53 PM AST
Astronomical Twilight 4:57 AM AST 7:18 PM AST
Moon 5:42 AM AST (3/11) 6:05 PM AST (3/11)
Length of Visible Light 12h 42m
Length of Day
12h 00m
Waning Crescent, 0% of the Moon is Illuminated
Mar 11
Waning Crescent
Mar 11
New
Mar 19
First Quarter
Mar 27
Full
Apr 3
Last Quarter

Hourly Weather History & Observations

Time (AST) Temp. Heat Index Dew Point Humidity Pressure Visibility Wind Dir Wind Speed Gust Speed Precip Events Conditions
12:00 AM 77.0 °F - 71.6 °F 83% 29.92 in 6.2 mi ENE 9.2 mph - N/A   Mostly Cloudy
1:00 AM 77.0 °F - 71.6 °F 83% 29.89 in 6.2 mi ENE 9.2 mph - N/A   Mostly Cloudy
2:00 AM 77 °F - 72 °F 81% 29.89 in 19 mi East 9.2 mph - -   Scattered Clouds
2:00 AM 77.0 °F - 71.6 °F 83% 29.89 in 6.2 mi East 9.2 mph - N/A   Mostly Cloudy
3:00 AM 77.0 °F - 71.6 °F 83% 29.86 in 6.2 mi East 8.1 mph - N/A   Mostly Cloudy
4:00 AM 77.0 °F - 71.6 °F 83% 29.86 in 6.2 mi East 9.2 mph - N/A   Mostly Cloudy
5:00 AM 77 °F - 72 °F 79% 29.87 in 19 mi East 8.1 mph - -   Partly Cloudy
5:00 AM 77.0 °F - 71.6 °F 83% 29.86 in 6.2 mi East 8.1 mph - N/A   Mostly Cloudy
6:00 AM 77.0 °F - 71.6 °F 83% 29.89 in 6.2 mi East 6.9 mph - N/A   Mostly Cloudy
7:00 AM 77.0 °F - 71.6 °F 83% 29.89 in 6.2 mi ENE 9.2 mph - N/A   Mostly Cloudy
8:00 AM 79 °F - 73 °F 77% 29.93 in 19 mi East 11.5 mph - -   Mostly Cloudy
8:00 AM 78.8 °F - 73.4 °F 83% 29.92 in 6.2 mi East 11.5 mph - N/A   Mostly Cloudy
9:00 AM 80.6 °F 84.6 °F 71.6 °F 74% 29.95 in 6.2 mi East 13.8 mph - N/A   Mostly Cloudy
10:00 AM 82.4 °F 88.2 °F 73.4 °F 74% 29.95 in 6.2 mi East 16.1 mph - N/A   Mostly Cloudy
11:00 AM 83 °F - 75 °F 70% 29.96 in 19 mi East 18.4 mph - -   Partly Cloudy
11:00 AM 84.2 °F 92.3 °F 75.2 °F 74% 29.95 in 6.2 mi East 18.4 mph - N/A   Mostly Cloudy
12:00 PM 84.2 °F 90.9 °F 73.4 °F 70% 29.92 in 6.2 mi East 19.6 mph - N/A   Scattered Clouds
1:00 PM 84.2 °F 90.9 °F 73.4 °F 70% 29.92 in 6.2 mi ESE 19.6 mph - N/A   Scattered Clouds
2:00 PM 84 °F - 74 °F 65% 29.89 in 19 mi ESE 18.4 mph - -  
2:00 PM 84.2 °F 90.9 °F 73.4 °F 70% 29.89 in 6.2 mi ESE 18.4 mph - N/A   Mostly Cloudy
3:00 PM 84.2 °F 90.9 °F 73.4 °F 70% 29.86 in 6.2 mi ESE 19.6 mph - N/A   Mostly Cloudy
4:00 PM 82.4 °F 88.2 °F 73.4 °F 74% 30.01 in 6.2 mi East 17.3 mph - N/A   Scattered Clouds
5:00 PM 80.6 °F 84.6 °F 71.6 °F 74% 30.01 in 6.2 mi East 12.7 mph - N/A   Mostly Cloudy
6:00 PM 80.6 °F 85.4 °F 73.4 °F 79% 29.89 in 6.2 mi East 15.0 mph - N/A   Mostly Cloudy
7:00 PM 78.8 °F - 73.4 °F 83% 29.89 in 6.2 mi East 15.0 mph - N/A   Mostly Cloudy
8:00 PM 79 °F - 73 °F 76% 29.91 in 19 mi East 12.7 mph - -  
8:00 PM 78.8 °F - 73.4 °F 83% 29.92 in 6.2 mi East 12.7 mph - N/A   Mostly Cloudy
9:00 PM 78.8 °F - 73.4 °F 83% 29.92 in 6.2 mi ENE 13.8 mph - N/A   Mostly Cloudy
10:00 PM 78.8 °F - 73.4 °F 83% 29.95 in 6.2 mi ENE 12.7 mph - N/A   Mostly Cloudy
11:00 PM 78.8 °F - 73.4 °F 83% 29.95 in 6.2 mi ENE 15.0 mph - N/A   Mostly Cloudy